Location: Unspecified
(52.1124°N, 0.0000°E)
Time: 05:33:36
(UTC+00:00)

SR - Visible Passes

Search period start: 04 April 2026 00:00
Search period end: 14 April 2026 00:00
Orbit: 571 x 850 km, 66.7° (Epoch: 29 March)

Date Brightness Start Highest point End Pass type
(mag) Time Alt. Az. Time Alt. Az. Time Alt. Az.
4 Apr ? 00:40:05 10° NNW 00:45:12 47° NE 00:45:34 46° NE visible
4 Apr ? 02:21:51 10° NW 02:24:32 28° WNW 02:24:32 28° WNW visible
4 Apr ? 20:19:24 10° WNW 20:22:53 19° NNW 20:26:33 10° NNE visible
4 Apr ? 22:03:13 10° NNW 22:06:30 17° N 22:09:55 10° NE visible
4 Apr ? 23:45:07 10° NNW 23:49:47 31° NNE 23:51:23 26° ENE visible
5 Apr ? 01:26:38 10° NW 01:30:22 47° NW 01:30:22 47° NW visible
5 Apr ? 19:23:14 10° W 19:27:11 25° NNW 19:31:24 10° NNE visible
5 Apr ? 21:07:32 10° NW 21:10:38 16° N 21:13:52 10° NE visible
5 Apr ? 22:50:04 10° NNW 22:54:10 23° NNE 22:57:19 14° ENE visible
6 Apr ? 00:31:34 10° NW 00:36:19 57° NNE 00:36:19 57° NNE visible
6 Apr ? 02:13:34 10° NW 02:15:19 19° WNW 02:15:19 19° WNW visible
6 Apr ? 20:11:29 10° NW 20:14:46 17° NNW 20:18:15 10° NNE visible
6 Apr ? 21:54:53 10° NNW 21:58:25 18° NNE 22:02:06 10° ENE visible
6 Apr ? 23:36:35 10° NNW 23:41:32 38° NE 23:42:20 36° ENE visible
7 Apr ? 01:18:12 10° NW 01:21:20 35° WNW 01:21:20 35° WNW visible
7 Apr ? 19:15:16 10° WNW 19:19:00 22° NNW 19:22:58 10° NNE visible
7 Apr ? 20:59:23 10° NW 21:02:34 16° N 21:05:53 10° NE visible
7 Apr ? 22:41:35 10° NNW 22:46:00 26° NNE 22:48:24 20° ENE visible
8 Apr ? 00:23:04 10° NW 00:27:24 59° NNW 00:27:24 59° NNW visible
8 Apr ? 02:05:25 10° WNW 02:06:25 14° WNW 02:06:25 14° WNW visible
8 Apr ? 20:03:30 10° NW 20:06:42 17° N 20:10:02 10° NNE visible
8 Apr ? 21:46:28 10° NNW 21:50:18 20° NNE 21:54:19 10° ENE visible
8 Apr ? 23:28:02 10° NNW 23:33:13 48° NE 23:33:31 47° NE visible
9 Apr ? 01:09:49 10° NW 01:12:31 28° WNW 01:12:31 28° WNW visible
9 Apr ? 20:51:08 10° NNW 20:54:29 17° N 20:58:00 10° NE visible
9 Apr ? 22:33:02 10° NNW 22:37:46 32° NNE 22:39:39 25° ENE visible
10 Apr ? 00:14:34 10° NW 00:18:40 53° NW 00:18:40 53° NW visible
10 Apr ? 01:57:29 10° WNW 01:57:41 11° WNW 01:57:41 11° WNW visible
10 Apr ? 19:55:26 10° NW 19:58:36 16° N 20:01:55 10° NE visible
10 Apr ? 21:37:59 10° NNW 21:42:09 23° NNE 21:45:49 13° ENE visible
10 Apr ? 23:19:29 10° NW 23:24:50 62° NE 23:24:50 62° NE visible
11 Apr ? 01:01:31 10° NW 01:03:51 22° WNW 01:03:51 22° WNW visible
11 Apr ? 20:42:46 10° NNW 20:46:22 18° NNE 20:50:09 10° ENE visible
11 Apr ? 22:24:28 10° NNW 22:29:29 39° NE 22:31:02 32° ENE visible
12 Apr ? 00:06:07 10° NW 00:10:03 45° WNW 00:10:03 45° WNW visible
12 Apr ? 19:47:15 10° NW 19:50:30 16° N 19:53:54 10° NE visible
12 Apr ? 21:29:26 10° NNW 21:33:56 27° NNE 21:37:15 16° ENE visible
12 Apr ? 23:10:57 10° NW 23:16:16 80° NNE 23:16:16 80° NNE visible
13 Apr ? 00:53:20 10° WNW 00:55:17 18° WNW 00:55:17 18° WNW visible
13 Apr ? 20:34:18 10° NNW 20:38:13 20° NNE 20:42:19 10° ENE visible
13 Apr ? 22:15:54 10° NNW 22:21:08 49° NE 22:22:31 40° E visible
